"Pseudo-MPEC" for P11Osz0

Created 2023 Nov 30 6:22:05 UT using Find_Orb

Click here for an explanation of pseudo-MPECs

 
 Astrometry: 
     P11Osz0* C2023 11 18wtKa/Zd7.EY:OEa[J%AstrometryU$qxLCNredacted;FVclickvF51
     P11Osz0  C2023 11 18_[sY`4C@xZ(x9C'8_BM/!)gr[9oc9L9xhereaforf1GTAShIQ[l2F51
     P11Osz0  C2023 11 18M+T!n0^[(sNx\g$u??aexplanationQfa_an(0EcW17b@l1PPl2#F51

Station data:
(F51) Pan-STARRS 1, Haleakala  (N20.707234 W156.255910)  US/Hawaii.
   Observers J. Bulger, T. Lowe, A. Schultz, M. Willman. Measurers K.
   Chambers, S. Chastel, T. de Boer, L. Denneau, J. Fairlamb, H. Flewelling,
   M. Huber, C.-C. Lin, E. Magnier, Y. Ramanjooloo, R. Wainscoat, R. Weryk.
   1.8-m Ritchey-Chrétien + CCD.

Orbital elements:  P11Osz0
   Perihelion 2024 Sep 19.68605 +/- 335 TT = 16:27:54 (JD 2460573.18605)
Epoch 2023 Nov 18.0 TT = JDT 2460266.5   Earth MOID: 0.0528      AutoNEOCP
M 262.77426225 +/- 80               (J2000 ecliptic)
n   0.31702041 +/- 0.214            Peri.   25.90376 +/- 60
a   2.13015511 +/- 0.958            Node   170.75422 +/- 47
e   0.5239175 +/- 0.259             Incl.   24.11127 +/- 45
P   3.11                   H 18.27  G  0.15   U 11.7  SR
q 1.01412941 +/- 1.06    Q 3.24618081 +/- 31.5
From 3 observations 2023 Nov. 18 (52.9 min); mean residual 0".02
Residuals in arcseconds: 
231118 F51  .02-  .02-    231118 F51  .03+  .02+    231118 F51  .01-  .01-    

Ephemerides (geocentric):
Date (UTC) HH   RA             Dec           delta  r     elong  mag " sig PA
---- --------  ------------   ------------  ------ ------ -----  --- --------
2023 11 30 06  03 10 01.646   -15 03 29.62  1.8532 2.6793 139.3 22.5 4908 106
2023 11 30 07  03 09 58.926   -15 03 36.95  1.8532 2.6792 139.3 22.5 4986 108
2023 11 30 08  03 09 56.208   -15 03 44.25  1.8533 2.6790 139.2 22.5 5079 109
2023 11 30 09  03 09 53.491   -15 03 51.52  1.8534 2.6788 139.2 22.5 5192 110
2023 11 30 10  03 09 50.776   -15 03 58.75  1.8535 2.6786 139.2 22.5 5333 112
2023 11 30 11  03 09 48.061   -15 04 05.95  1.8536 2.6784 139.1 22.5 5512 114
2023 11 30 12  03 09 45.348   -15 04 13.11  1.8536 2.6783 139.1 22.5 5744 116
2023 11 30 13  03 09 42.637   -15 04 20.24  1.8537 2.6781 139.1 22.5 6049 119
2023 11 30 14  03 09 39.926   -15 04 27.33  1.8538 2.6779 139.1 22.5 6458 121
2023 11 30 15  03 09 37.217   -15 04 34.38  1.8539 2.6777 139.0 22.5 7014 124
2023 11 30 16  03 09 34.509   -15 04 41.40  1.8540 2.6776 139.0 22.5 7786 126
2023 11 30 17  03 09 31.803   -15 04 48.39  1.8541 2.6774 139.0 22.5 8882 127
2023 11 30 18  03 09 29.097   -15 04 55.34  1.8541 2.6772 138.9 22.5 175' 128
2023 11 30 19  03 09 26.394   -15 05 02.25  1.8542 2.6770 138.9 22.6 216' 128
2023 11 30 20  03 09 23.691   -15 05 09.14  1.8543 2.6768 138.9 22.6 283' 125
2023 11 30 21  03 09 20.990   -15 05 15.98  1.8544 2.6767 138.8 22.6 399' 119
2023 11 30 22  03 09 18.290   -15 05 22.79  1.8545 2.6765 138.8 22.6 576' 109
2023 11 30 23  03 09 15.592   -15 05 29.57  1.8546 2.6763 138.8 22.6 737'  99
2023 12 01 00  03 09 12.895   -15 05 36.31  1.8546 2.6761 138.7 22.6 835'  92
2023 12 01 01  03 09 10.199   -15 05 43.01  1.8547 2.6759 138.7 22.6 893'  88
2023 12 01 02  03 09 07.505   -15 05 49.68  1.8548 2.6758 138.7 22.6 931'  86
2023 12 01 03  03 09 04.812   -15 05 56.31  1.8549 2.6756 138.6 22.6 956'  84
2023 12 01 04  03 09 02.120   -15 06 02.91  1.8550 2.6754 138.6 22.6 975'  83
2023 12 01 05  03 08 59.430   -15 06 09.48  1.8551 2.6752 138.6 22.6 989'  83
2023 12 01 06  03 08 56.741   -15 06 16.01  1.8552 2.6751 138.5 22.6  17d  82
2023 12 01 07  03 08 54.053   -15 06 22.50  1.8553 2.6749 138.5 22.6  17d  82
2023 12 01 08  03 08 51.367   -15 06 28.96  1.8553 2.6747 138.5 22.6  17d  81
2023 12 01 09  03 08 48.682   -15 06 35.38  1.8554 2.6745 138.4 22.6  17d  81
2023 12 01 10  03 08 45.999   -15 06 41.77  1.8555 2.6743 138.4 22.6  17d  81
2023 12 01 11  03 08 43.317   -15 06 48.13  1.8556 2.6742 138.4 22.6  17d  81
2023 12 01 12  03 08 40.637   -15 06 54.44  1.8557 2.6740 138.3 22.6  17d  81
2023 12 01 13  03 08 37.958   -15 07 00.73  1.8558 2.6738 138.3 22.6  17d  80
2023 12 01 14  03 08 35.280   -15 07 06.98  1.8559 2.6736 138.3 22.6  17d  80
2023 12 01 15  03 08 32.604   -15 07 13.19  1.8560 2.6734 138.2 22.6  17d  80
2023 12 01 16  03 08 29.929   -15 07 19.37  1.8561 2.6733 138.2 22.6  17d  80
2023 12 01 17  03 08 27.256   -15 07 25.51  1.8562 2.6731 138.2 22.6  17d  80
2023 12 01 18  03 08 24.584   -15 07 31.62  1.8563 2.6729 138.1 22.6  17d  80
2023 12 01 19  03 08 21.913   -15 07 37.69  1.8563 2.6727 138.1 22.6  17d  80
2023 12 01 20  03 08 19.244   -15 07 43.73  1.8564 2.6725 138.1 22.6  18d  80
2023 12 01 21  03 08 16.576   -15 07 49.73  1.8565 2.6724 138.0 22.6  18d  80
2023 12 01 22  03 08 13.910   -15 07 55.70  1.8566 2.6722 138.0 22.6  18d  80
2023 12 01 23  03 08 11.245   -15 08 01.63  1.8567 2.6720 138.0 22.6  18d  80
2023 12 02 00  03 08 08.582   -15 08 07.53  1.8568 2.6718 137.9 22.6  18d  80
2023 12 02 01  03 08 05.920   -15 08 13.39  1.8569 2.6716 137.9 22.6  18d  80
2023 12 02 02  03 08 03.260   -15 08 19.22  1.8570 2.6715 137.9 22.6  18d  80
2023 12 02 03  03 08 00.601   -15 08 25.01  1.8571 2.6713 137.8 22.6  18d  80
2023 12 02 04  03 07 57.944   -15 08 30.77  1.8572 2.6711 137.8 22.6  18d  79
2023 12 02 05  03 07 55.288   -15 08 36.49  1.8573 2.6709 137.8 22.6  18d  79